格洛纳斯M-760 COSMOS 2545 [GLONASS-M]

导读

COSMOS 2545是俄罗斯航天集团(归属独联体CIS)发射的格洛纳斯(GLONASS)系列导航卫星,于2020年3月16日发射入轨。作为GLONASS全球卫星导航系统的组网卫星,它承担着补充组网、提升系统覆盖精度的任务,配备铯原子钟等设备,可为民用和军用提供高精度定位导航服务,助力维持GLONASS星座稳定运行。

基本信息
目录编号:
45358
目录名称:
COSMOS 2545 (GLONASS)
国际标识:
2020-018A
轨道中心:
EARTH
卫星名称:
格洛纳斯M-760
卫星全名:
格洛纳斯M-760 COSMOS 2545 [GLONASS-M]
卫星状态:
在轨 (已飞行2374 天)
发射日期:
2020-03-16 UTC
国别 :
俄罗斯(独联体) (CIS)
星等 :
--
该卫星已列入 空间交会检测服务 Space Conjunction Data Service (SCDS) ,当前飞行风险评估等级: 无高风险
轨道信息
数据来源 国际轨道数据 AOE轨道数据
星历时间 2026-09-13T18:41:02+0800
2天前
查看轨道信息
2026-09-10T01:00:00+0800
6天前
查看轨道信息
半长轴 25507.993km 25507.977km
偏心率 0.001187 0.0011748
轨道倾角 64.297° 64.300°
近地点辐角 235.707° 235.593°
升交点赤经 309.313° 309.445°
平近点角 124.255° 137.605°
近地点 19099.578km 19099.873km
远地点 19160.134km 19159.807km
周期 675.731分钟 675.731分钟
每日圈数 2.131024 2.131026
详细信息
平衡模式:
三轴稳定
覆盖范围:
全球
运营商:
列舍特涅夫卫星信息系统
运营商所在国:
俄罗斯
制造商(研发单位):
列舍特涅夫卫星信息系统
制造商所在国:
俄罗斯
使用方式:
暂无
卫星简介
格洛纳斯(GLONASS )是苏联/俄罗斯研制卫星导航系统。标准配置为24颗卫星,其中18颗卫星就能保证该系统为俄罗斯境内用户提供全部服务。该卫星仍在工作。
2D轨道图
3D轨道图
轨道高度分析图
轨道倾角分析图
轨道综合分析图
查看轨道综合分析图
与全量物体交会距离演化趋势 订阅飞行安全评估服务
与全量物体交会风险概率演化趋势 订阅飞行安全评估服务